GFSGBSN_sfc_30mbdewp_210.txt.gz
Dewpoint
47 48 50 52 54 55 54 56 60 59 58 58 57 58 57 58 58 58 58 57 56 56 53 49 49 48 47 43 39 40 39 41 36 35 29 28 28 28 26 26 26 26 26 26 26 25 25
46 46 46 48 50 52 54 54 55 58 58 58 57 57 57 57 57 57 57 58 56 56 53 48 49 46 46 43 44 45 40 36 36 39 37 28 28 28 27 26 25 26 25 24 25 24 24
44 45 44 46 46 49 50 53 53 54 57 58 57 57 57 57 57 57 57 57 57 56 53 48 47 45 47 46 47 44 41 40 40 41 37 32 28 27 28 27 27 26 25 25 25 25 23
45 44 46 47 47 47 49 51 51 52 53 57 58 57 56 56 56 56 57 57 57 56 52 48 46 45 47 49 46 44 44 43 42 42 40 38 30 30 28 27 25 24 24 22 22 23 23
45 45 45 45 45 47 48 48 48 50 51 53 56 57 56 56 56 56 56 57 56 55 50 48 47 48 44 47 44 44 42 39 38 38 38 36 34 31 27 27 25 24 21 21 20 23 22
42 44 44 44 45 45 46 47 48 48 51 52 53 56 57 56 55 55 55 56 55 51 50 48 43 45 46 43 42 40 39 38 32 33 33 31 34 30 29 26 23 22 22 22 21 22 23
39 41 42 44 44 44 45 46 47 48 50 52 53 54 57 56 55 55 54 51 48 46 48 47 44 42 41 44 41 39 35 34 31 31 30 30 28 27 26 27 26 24 22 21 21 22 22
41 42 41 41 43 44 43 44 45 46 47 49 50 53 54 56 55 55 54 50 48 45 41 47 47 45 43 43 40 36 37 31 30 29 29 27 27 28 28 27 26 25 23 23 24 25 25
41 42 41 41 42 42 43 42 43 45 45 47 48 51 54 55 55 53 52 51 48 47 41 40 46 44 43 43 41 37 38 30 28 28 28 27 27 28 26 25 24 24 24 24 24 25 26
40 41 41 41 42 42 42 42 42 42 45 45 47 48 52 54 51 52 51 52 47 49 38 32 40 44 44 42 40 41 38 34 30 26 27 27 28 26 25 25 26 26 27 26 25 26 25
40 40 40 41 41 42 41 41 41 42 43 45 46 47 49 53 51 50 52 53 54 48 24 31 31 41 43 42 32 36 40 37 32 30 26 26 26 26 27 27 27 27 28 27 27 28 28
41 41 40 40 40 41 42 41 41 41 42 44 46 46 48 48 51 53 55 53 49 32 24 30 36 39 39 41 35 35 37 38 34 31 31 28 29 27 27 28 28 28 27 26 26 25 23
43 42 41 40 40 40 41 41 41 41 42 43 44 46 46 48 46 56 54 49 34 27 33 28 36 38 36 37 37 35 35 35 31 30 30 31 30 30 28 27 27 27 27 25 21 19 21
45 44 44 42 40 40 40 40 41 41 41 42 43 45 45 47 49 55 51 42 28 32 31 32 35 36 34 35 36 33 35 33 32 28 23 26 26 30 28 29 27 27 27 27 26 22 22
45 45 44 44 43 41 40 40 40 40 41 42 43 42 42 45 48 49 46 34 31 32 31 32 35 35 33 36 34 32 32 32 34 34 28 27 27 30 32 29 29 29 28 29 31 30 25
43 43 44 45 44 42 41 40 40 40 40 41 40 40 39 41 48 44 40 34 34 35 31 35 32 34 33 35 34 34 32 33 34 36 34 34 30 26 28 29 31 33 33 30 32 24 22
43 43 44 43 44 43 42 40 40 40 40 41 39 33 33 40 45 39 29 36 36 38 32 33 30 32 32 32 32 34 30 28 35 36 35 28 28 20 21 26 30 31 31 31 30 28 26
43 44 44 46 44 44 43 41 40 40 40 41 36 28 32 40 32 34 31 38 37 36 33 32 31 30 31 32 33 34 32 31 29 33 34 31 32 27 21 21 21 28 30 32 30 29 29
44 44 44 44 45 44 44 43 41 40 40 38 30 31 34 36 24 29 33 36 39 35 32 31 30 31 32 31 32 33 32 29 21 27 31 31 34 30 27 24 20 19 22 29 30 30 29
44 44 47 48 46 44 44 43 41 39 40 39 30 24 31 34 31 29 31 34 35 36 33 31 30 31 30 30 32 32 31 26 22 24 26 30 30 28 24 22 23 21 19 21 28 28 24
44 44 47 47 46 44 44 43 41 39 40 38 29 26 27 26 30 29 33 35 33 35 33 32 31 30 31 30 31 31 31 29 25 26 24 28 29 29 29 23 19 20 21 19 21 26 23
44 44 43 45 44 44 44 42 40 40 41 35 28 30 32 22 23 31 28 33 34 36 35 32 32 31 31 31 31 30 32 30 27 27 24 27 29 29 28 26 19 18 18 19 19 21 21
44 43 43 45 45 44 42 41 40 40 39 33 34 34 33 28 25 26 28 34 35 37 36 35 34 33 32 33 34 36 35 33 31 27 24 28 29 25 26 28 22 22 21 19 20 18 18
42 43 43 44 43 42 42 40 39 40 38 33 32 32 30 23 29 27 33 35 37 37 35 36 36 34 35 35 34 33 34 33 31 31 31 30 30 29 24 22 18 18 14 21 19 19 18
40 42 42 42 42 41 41 39 40 41 39 33 36 32 31 29 28 30 32 35 37 37 36 36 37 36 36 33 29 27 26 27 28 31 32 32 30 23 21 20 19 17 7 18 19 20 19
40 41 41 41 41 41 41 41 41 41 41 35 38 37 33 27 27 33 31 35 36 33 30 31 36 36 35 31 29 23 21 24 23 25 32 33 29 26 24 21 16 14 8 10 14 11 11
39 40 40 41 41 41 41 41 41 41 42 38 35 40 35 30 32 35 34 32 37 34 28 31 31 31 33 29 25 23 22 24 20 20 22 25 25 23 22 20 18 10 6 4 7 12 14
38 39 40 39 39 41 42 42 42 41 41 40 38 41 37 33 33 32 36 36 35 34 29 30 29 29 29 29 27 23 22 23 23 23 22 21 21 21 21 20 17 13 8 5 13 16 16
37 37 38 39 39 39 41 41 42 41 41 42 38 43 39 34 31 33 37 38 37 35 33 33 32 30 32 28 26 24 22 20 20 18 19 19 20 19 20 19 17 16 17 17 15 17 18

GFSGBSN_sfc_30mbdewp_213.txt.gz
Dewpoint
47 46 46 47 48 49 50 52 54 55 55 58 58 58 58 58 58 58 57 57 58 57 57 53 50 50 49 44 39 41 40 41 39 36 31 29 29 28 26 26 26 26 26 25 25 25 24
47 47 46 45 45 46 46 48 50 53 54 55 57 58 57 57 57 57 57 57 57 57 56 53 50 49 48 42 42 42 40 38 37 35 35 30 29 29 28 27 25 25 25 25 24 24 24
46 47 47 47 46 46 47 48 48 50 51 52 53 56 57 57 57 57 57 57 57 56 56 53 50 49 48 44 45 44 40 38 36 34 34 34 31 29 29 27 28 26 25 25 24 24 23
43 45 46 47 47 48 48 48 48 49 50 51 50 53 56 57 57 56 57 56 57 56 56 52 49 50 46 46 48 46 45 42 41 40 39 37 34 30 30 30 27 25 25 23 22 23 23
42 42 43 45 47 47 47 47 48 48 49 49 50 50 53 55 56 56 56 56 56 56 54 50 50 50 44 47 46 47 43 40 40 39 39 37 36 31 31 29 27 26 21 21 21 22 21
39 41 42 44 45 47 46 46 47 47 48 48 49 49 50 53 56 56 55 56 56 54 51 51 50 47 46 42 43 43 44 42 38 36 36 36 34 32 30 28 24 23 22 22 20 21 22
39 40 40 42 43 45 46 46 46 46 47 49 49 50 50 53 54 55 55 53 49 46 49 46 45 42 37 42 42 39 38 39 36 34 33 32 30 29 29 29 27 24 23 22 22 22 21
40 40 40 40 43 43 44 45 45 46 46 48 48 48 49 51 53 55 55 50 48 43 42 48 45 45 42 40 39 39 37 34 32 30 31 29 28 29 29 28 27 26 25 23 23 22 23
41 41 41 40 40 42 42 43 44 45 46 46 46 47 48 50 50 53 52 51 51 46 42 39 46 42 44 42 38 35 36 34 32 30 30 28 28 29 28 27 26 26 25 24 23 24 26
42 42 41 41 42 42 42 43 43 43 44 44 45 45 47 49 45 50 50 54 53 51 36 35 38 44 42 40 37 37 35 32 31 29 29 28 28 27 28 27 27 25 26 25 25 25 22
44 43 43 42 42 42 41 42 43 43 43 43 42 44 47 48 46 49 50 55 55 49 23 33 34 41 41 39 35 35 37 34 26 26 25 25 25 27 27 27 27 26 28 28 27 26 26
45 45 46 44 43 42 41 41 42 42 42 43 43 44 46 44 47 43 48 56 50 33 24 34 32 35 38 39 37 32 34 35 31 29 26 23 26 26 27 27 28 28 28 28 28 27 25
44 44 45 45 46 44 42 41 41 41 42 42 42 42 42 37 39 45 49 50 36 27 36 32 30 33 37 37 37 34 32 34 31 29 27 26 25 26 28 26 28 29 27 25 25 24 23
44 44 44 44 45 46 45 43 41 41 41 42 42 42 41 42 42 45 48 42 29 32 32 30 32 37 35 37 37 35 30 30 33 30 25 25 24 26 29 27 26 27 27 25 24 22 23
43 43 42 43 44 45 45 45 43 41 41 41 41 41 38 40 42 46 38 31 32 33 34 28 34 34 34 34 35 37 33 31 31 33 27 23 23 26 28 30 29 27 27 30 27 30 30
42 41 42 43 43 44 44 45 44 42 41 41 40 38 36 36 40 42 32 28 35 36 32 29 34 34 32 32 32 34 33 33 31 32 31 27 25 25 26 29 29 28 28 27 34 26 25
41 42 43 43 44 44 44 45 45 43 41 41 39 33 33 35 37 37 26 28 32 40 32 29 33 33 32 32 33 34 32 30 32 31 32 29 33 30 30 30 28 28 31 31 33 29 27
42 43 43 44 44 44 45 44 45 44 42 40 35 27 30 35 30 32 29 32 37 38 37 31 35 33 32 33 33 33 32 30 32 32 31 33 36 29 31 30 32 30 33 33 32 31 30
42 43 44 44 44 44 45 45 45 44 42 39 31 30 30 34 24 27 28 32 32 35 37 32 32 32 33 34 33 36 35 33 33 35 35 35 36 31 25 26 24 24 31 34 33 33 31
41 42 44 44 44 46 47 46 45 44 42 38 30 26 29 33 31 25 28 26 33 36 37 35 32 32 34 35 37 37 35 33 33 35 39 39 36 33 26 26 26 24 24 28 34 34 31
41 43 43 44 45 47 49 46 45 44 42 36 30 27 26 25 28 28 29 24 26 32 35 40 34 33 34 34 37 35 35 29 25 32 36 37 34 35 33 30 32 25 24 24 24 29 32
41 43 43 45 45 46 46 45 45 43 41 33 29 26 24 18 23 26 26 28 25 24 33 34 37 34 34 35 37 34 34 28 24 27 30 32 31 31 31 31 29 25 23 23 22 22 22
40 42 43 45 44 46 46 45 44 42 40 34 29 22 25 22 19 22 25 27 25 31 32 36 38 36 36 36 35 35 35 33 30 27 30 33 33 33 29 30 30 28 26 23 22 23 22
40 41 42 43 45 44 44 44 43 42 39 32 27 25 26 21 22 21 23 26 23 32 29 38 40 39 39 37 36 36 36 35 32 31 33 32 34 32 30 29 22 25 22 25 23 23 23
39 40 42 41 42 42 44 43 42 42 36 30 29 28 28 23 24 18 20 22 22 24 34 37 40 42 38 35 33 31 28 29 30 34 33 35 34 29 26 24 22 21 15 21 24 25 24
39 39 40 41 40 40 41 41 41 40 37 32 32 29 28 24 26 25 22 30 28 26 27 37 41 41 41 35 31 26 25 26 25 27 34 35 34 30 27 24 20 21 20 19 22 20 22
39 39 40 39 41 40 40 40 39 39 37 33 35 36 30 28 28 33 30 31 32 31 28 35 35 36 37 33 31 30 28 28 24 23 25 28 29 26 26 24 24 14 14 18 18 18 19
38 39 39 39 39 41 41 40 39 39 39 35 35 39 36 30 32 34 34 30 31 35 31 32 32 31 31 32 32 28 27 28 24 25 25 25 25 25 28 24 21 13 11 13 18 19 16
37 39 39 39 37 38 41 40 41 40 41 40 32 37 39 35 32 35 35 36 34 33 37 34 33 32 35 31 33 30 27 28 26 22 25 23 24 24 25 23 23 14 12 19 18 16 14

GFSGBSN_sfc_30mbdewp_219.txt.gz
Dewpoint
43 46 47 48 48 49 49 48 47 48 50 50 51 51 51 51 54 56 58 57 56 56 57 58 57 54 52 49 47 45 41 41 40 38 36 35 32 30 28 28 28 27 26 26 26 26 25
43 43 44 46 46 47 48 49 49 49 49 49 51 51 51 51 51 52 54 57 57 56 57 57 57 53 51 46 48 47 44 39 38 37 36 35 33 31 29 28 28 29 28 27 27 25 26
40 42 42 44 45 46 46 48 49 49 50 49 49 51 52 51 50 51 51 53 57 56 56 57 57 52 50 47 49 48 47 40 40 37 35 35 34 32 31 29 29 28 27 27 27 26 25
39 39 39 43 44 45 46 47 48 48 48 49 49 49 51 50 50 50 50 52 54 56 56 57 56 53 47 49 51 48 47 46 47 43 39 39 37 37 34 32 29 28 28 26 27 26 26
40 39 39 41 42 44 44 45 46 46 48 48 49 49 50 50 49 49 50 51 53 57 57 57 53 51 44 48 47 48 48 45 45 45 40 40 38 36 35 32 27 27 26 26 26 26 26
43 41 41 42 42 43 43 44 45 46 47 48 47 48 49 50 51 50 50 52 53 56 56 55 52 47 47 45 45 46 46 46 44 42 42 40 37 34 32 31 25 25 26 27 26 26 26
45 44 43 41 42 42 42 42 44 45 46 47 48 47 47 49 51 51 51 52 49 49 52 45 44 41 38 43 43 43 45 45 44 43 37 38 36 33 32 32 29 27 27 26 26 27 26
46 45 45 44 43 42 40 41 42 42 44 45 46 47 47 47 48 50 47 47 49 51 45 49 43 46 43 41 39 40 44 42 42 40 40 36 34 35 33 32 31 29 27 26 27 28 28
44 46 45 45 45 44 43 43 43 43 43 43 44 46 46 47 47 46 44 41 47 49 44 46 47 43 44 44 42 40 40 41 38 39 37 34 33 35 34 32 31 30 28 27 27 28 28
42 44 44 43 44 44 44 45 45 44 43 43 43 44 46 46 43 42 39 40 43 48 36 37 43 45 44 42 39 42 41 39 37 37 38 36 34 31 33 32 31 29 29 28 27 26 24
41 41 42 42 43 45 45 45 46 46 45 44 43 43 44 45 38 35 42 44 43 47 24 38 42 46 44 40 36 37 39 39 34 34 36 32 31 31 30 32 31 29 29 28 26 25 25
40 40 41 42 43 44 44 45 45 45 46 46 44 43 44 43 42 40 38 41 37 32 24 35 40 41 41 40 38 36 36 38 37 33 33 32 32 30 30 30 29 29 28 27 27 26 24
41 41 41 42 42 43 43 44 44 44 45 45 46 44 43 41 37 41 40 38 21 23 33 32 37 37 40 39 38 37 34 34 35 31 29 30 29 29 28 27 27 27 26 27 28 26 28
40 41 41 42 42 43 43 43 44 44 44 44 45 45 44 41 40 39 39 31 16 20 30 37 36 35 37 38 38 37 35 33 34 33 29 27 26 28 29 27 26 26 25 26 26 26 27
38 40 41 41 42 42 42 42 43 43 44 44 44 44 43 41 41 39 32 22 17 19 27 29 35 33 34 37 37 37 36 37 37 34 31 28 27 26 28 28 25 23 23 27 27 27 26
37 38 40 41 41 41 41 42 43 43 44 45 43 41 40 41 41 37 27 22 22 26 23 31 27 33 32 35 36 37 36 36 37 36 34 30 28 28 25 26 25 22 27 25 33 28 25
38 38 40 40 41 41 41 43 43 44 44 45 42 36 39 41 41 33 21 22 23 25 29 29 30 27 32 34 36 36 35 35 37 38 34 33 30 32 33 25 23 23 26 29 30 33 26
39 39 39 40 40 40 42 43 44 44 44 44 39 30 41 40 30 29 23 23 23 19 21 26 34 37 29 32 35 35 35 35 37 37 36 34 32 30 30 34 33 26 26 30 30 30 32
39 39 39 40 40 41 41 43 43 43 43 42 35 34 40 38 24 24 24 22 23 20 20 24 31 38 39 38 33 35 37 37 36 36 35 35 35 31 32 34 37 36 36 27 31 34 31
39 39 39 40 40 41 40 43 43 43 43 43 36 28 32 35 32 26 23 22 23 22 19 19 28 31 32 36 40 37 35 36 36 36 37 36 38 32 28 29 32 33 34 30 28 31 31
38 39 39 39 39 41 40 43 42 43 45 44 36 30 31 25 28 26 22 21 21 21 22 19 21 26 30 32 36 37 39 37 37 35 38 35 33 37 34 34 32 31 31 29 27 29 31
38 39 39 39 40 40 41 41 44 45 46 42 32 30 31 26 29 26 22 21 20 21 20 22 22 23 27 29 33 35 39 39 36 37 36 37 33 36 35 36 33 31 32 35 33 33 34
38 39 39 39 40 40 42 44 40 45 47 41 37 34 28 28 26 25 22 21 22 21 21 20 21 20 23 28 35 34 37 43 43 36 36 37 36 36 32 36 36 32 33 35 36 36 37
39 39 39 39 40 39 42 43 41 43 44 37 37 32 27 25 26 25 23 23 23 21 21 21 21 20 25 28 37 38 42 40 41 39 38 37 35 36 33 35 28 35 35 35 35 34 36
38 39 39 39 40 39 41 42 42 42 42 39 34 29 27 26 26 24 22 22 22 22 22 22 22 28 30 33 31 30 32 34 35 41 39 39 36 32 31 31 32 31 34 36 35 33 32
38 38 39 39 40 39 39 40 40 42 42 38 38 37 32 28 25 23 22 23 23 23 23 22 23 27 33 33 30 25 24 30 31 33 40 39 37 32 30 29 26 29 29 37 36 30 33
37 37 38 39 39 39 38 39 39 40 41 40 38 40 33 29 34 28 26 26 27 26 24 23 24 25 29 29 27 26 27 32 28 30 32 36 35 33 31 29 30 29 24 28 25 23 28
37 38 38 38 39 39 38 37 40 40 41 40 37 40 37 33 34 34 34 32 31 31 28 29 27 28 29 26 27 30 29 31 30 32 33 33 32 32 32 29 26 28 24 23 24 21 29
37 38 38 38 39 39 37 38 39 42 41 41 37 41 41 34 34 37 36 35 33 32 30 31 30 28 32 29 30 31 30 31 32 27 34 31 34 32 31 29 30 23 24 26 22 26 29

GFSGBSN_sfc_30mbdewp_225.txt.gz
Dewpoint
45 44 41 40 40 43 46 46 48 49 50 50 51 50 52 52 50 49 51 52 52 53 57 57 57 57 52 49 44 45 49 48 46 40 35 34 34 33 30 30 29 28 28 28 29 28 28
46 45 46 44 42 41 41 43 45 48 48 49 50 50 50 51 52 50 49 50 51 52 54 57 57 55 51 41 48 48 49 48 44 42 38 37 35 34 32 31 30 29 29 29 29 29 29
46 47 46 46 44 42 42 43 44 45 46 48 49 49 49 50 51 51 50 48 49 50 53 55 57 54 49 42 48 49 48 48 47 46 45 42 38 36 34 32 33 30 29 29 28 28 28
45 46 46 46 46 45 44 44 44 43 44 45 46 48 48 48 50 51 50 49 49 50 51 54 58 54 45 48 46 46 48 46 45 46 45 46 44 38 35 35 33 30 29 26 27 28 28
43 44 45 46 46 47 46 44 44 43 43 44 46 47 48 48 48 49 50 50 50 50 51 54 54 51 44 47 46 46 48 42 40 44 45 44 40 37 36 33 31 29 27 26 26 28 28
41 42 43 44 46 46 47 46 45 44 44 45 44 46 47 47 48 48 48 49 49 50 51 53 54 47 47 42 45 48 44 47 44 43 43 43 40 36 34 32 27 27 27 27 25 26 27
39 39 41 42 43 44 45 46 47 46 44 44 44 45 46 46 46 47 46 40 44 44 48 47 47 43 40 44 43 44 46 44 45 43 38 41 38 35 34 32 31 29 27 26 26 27 27
37 38 39 40 41 42 43 43 44 46 47 47 45 44 45 45 45 45 45 34 38 36 31 40 45 47 45 41 38 41 45 42 42 36 39 38 37 37 36 34 32 31 30 29 28 29 28
36 36 39 39 40 40 41 42 42 43 44 45 47 47 44 44 45 44 42 39 43 37 32 36 41 46 46 44 41 37 44 42 39 37 36 36 34 37 35 34 32 31 30 30 29 29 29
34 38 38 39 39 40 40 42 42 42 43 44 45 45 47 44 40 41 40 43 44 42 27 28 38 46 47 44 41 39 41 42 42 37 36 35 37 35 35 33 33 30 32 31 30 29 26
36 35 37 38 39 39 40 41 41 42 42 43 44 45 45 47 38 40 39 42 41 41 14 19 33 47 47 43 40 40 38 37 40 39 38 32 35 36 35 34 34 31 31 30 30 28 29
34 36 36 37 37 38 38 40 40 41 41 42 43 45 45 44 44 39 41 40 38 26 14 22 37 42 42 43 42 40 38 37 38 39 39 35 36 35 35 35 34 33 31 30 31 30 28
34 35 35 36 36 37 37 37 39 41 41 42 43 44 44 44 40 43 41 36 22 16 22 28 33 38 37 37 40 40 38 36 34 34 36 38 37 35 35 33 33 34 31 27 26 27 25
34 34 34 34 35 36 36 37 39 41 41 42 44 44 44 44 45 44 40 29 14 16 17 24 33 34 33 33 35 38 37 36 35 36 33 33 32 37 36 33 31 31 32 26 20 19 21
34 34 34 34 34 36 37 37 38 41 42 42 44 43 42 42 45 44 32 19 15 14 14 12 14 21 31 34 35 35 37 36 37 34 33 32 32 32 36 35 31 30 31 30 26 29 25
36 35 35 35 35 36 36 37 38 39 41 42 41 41 39 42 45 39 27 20 19 17 14 14 8 19 26 28 34 34 34 37 36 37 36 33 29 31 32 34 33 30 31 29 30 25 20
37 36 36 36 36 36 36 37 38 39 40 41 40 35 40 43 44 33 23 21 20 18 17 13 12 12 12 17 32 31 31 33 37 37 36 34 32 31 30 30 31 30 29 29 32 29 22
37 37 36 36 36 36 36 37 38 39 40 41 37 29 42 43 31 30 24 25 21 18 20 20 20 15 14 15 14 26 33 35 36 37 36 35 34 31 30 31 31 30 29 29 27 25 27
37 37 36 36 36 36 37 37 38 40 40 40 33 33 42 41 25 26 27 25 24 19 17 20 20 20 19 16 17 21 27 34 38 38 35 35 34 31 31 33 34 32 29 29 28 27 24
37 37 37 36 36 36 36 37 38 39 40 42 34 27 33 36 33 26 25 24 24 24 18 17 16 19 18 19 22 23 23 31 33 35 39 36 34 33 29 29 31 33 35 28 27 26 26
37 36 37 37 36 35 36 37 38 39 39 40 35 27 31 24 28 29 26 23 23 23 22 18 15 16 15 15 17 17 24 29 27 30 37 39 34 33 34 32 30 30 33 32 27 27 26
36 35 37 36 35 34 35 36 37 39 39 38 30 30 33 28 27 28 26 24 23 23 22 20 16 15 16 16 14 12 14 16 17 26 35 34 35 37 34 33 32 30 33 33 30 29 29
36 34 34 34 34 34 35 36 38 38 39 35 37 38 34 30 30 28 26 25 24 23 24 22 20 18 17 15 17 19 22 26 32 29 27 28 28 29 30 32 32 30 32 34 34 32 29
36 35 34 34 33 34 35 37 39 39 39 39 37 36 30 24 28 27 27 25 25 24 22 23 21 20 20 20 20 21 22 22 23 25 31 28 25 25 21 24 25 33 34 36 33 35 33
35 35 35 33 33 34 35 38 39 39 39 38 39 35 31 26 29 28 28 27 27 26 25 23 22 22 23 21 19 19 18 19 20 20 21 27 25 22 20 20 24 33 33 34 35 34 34
35 34 33 33 34 35 37 37 38 39 39 38 39 40 33 28 26 32 30 31 28 28 28 27 24 24 25 27 24 17 14 12 10 12 19 24 27 23 20 18 16 25 33 36 36 32 34
35 34 34 34 34 35 36 38 38 38 38 38 39 40 37 29 33 32 30 29 31 30 26 27 26 25 26 25 20 19 17 19 14 12 16 23 24 23 24 22 24 29 38 34 31 32 34
35 35 35 34 35 35 36 38 38 39 39 40 38 40 37 31 33 35 34 31 30 29 25 26 26 27 28 24 22 20 19 17 17 18 19 15 17 21 26 23 21 38 36 33 34 34 32
34 35 35 35 35 35 36 37 39 37 42 40 37 39 41 33 31 37 37 36 32 30 28 29 25 27 28 24 23 19 17 19 16 14 18 17 22 22 28 28 38 37 38 38 35 35 32

GFSGBSN_sfc_30mbdewp_228.txt.gz
Dewpoint
47 47 47 47 46 45 43 42 44 46 47 48 48 48 49 49 52 51 49 48 50 51 52 56 57 57 53 47 41 44 50 49 44 38 35 34 33 32 30 30 29 29 29 29 29 29 28
45 45 46 47 47 46 45 43 44 45 46 47 48 49 48 49 49 51 51 48 47 48 50 54 57 57 51 39 46 48 48 48 45 41 39 36 35 34 33 32 30 30 29 29 29 29 29
43 44 44 46 47 47 47 46 45 45 45 45 46 48 48 48 48 50 50 51 49 48 48 51 55 54 48 43 44 48 47 48 47 45 43 42 39 36 34 33 33 32 29 30 29 29 28
41 42 42 44 44 47 47 47 46 44 44 44 44 46 47 47 47 48 49 51 51 50 50 51 53 55 47 49 48 46 45 44 46 46 44 44 45 40 36 36 33 31 29 28 27 28 28
39 39 41 42 43 44 46 47 48 46 44 44 44 45 46 47 47 47 48 48 49 50 50 51 50 52 46 49 46 46 47 39 39 42 44 44 42 38 36 34 31 30 28 27 26 28 27
37 38 40 40 41 41 43 44 46 47 47 46 44 44 45 45 46 46 47 47 46 47 48 50 50 48 48 44 45 46 44 45 41 41 43 43 41 37 35 32 25 27 28 28 27 26 27
37 38 37 39 40 40 40 41 43 43 44 48 47 45 44 44 44 45 45 42 36 43 45 40 45 46 43 46 45 46 43 43 44 42 35 42 39 36 35 34 32 27 28 27 27 28 27
35 34 36 38 39 40 40 40 42 42 43 44 45 46 46 44 44 43 44 38 38 35 32 35 40 45 48 45 38 40 44 39 39 35 36 39 36 35 36 35 33 31 29 28 29 30 29
35 37 36 37 37 39 40 40 41 42 42 44 44 45 46 47 43 43 41 39 42 39 33 33 35 40 47 48 44 39 43 41 39 36 34 31 30 36 37 35 33 32 30 30 29 30 30
35 33 36 36 37 37 39 39 40 40 41 43 43 44 45 44 43 41 40 41 44 42 27 25 32 38 40 45 43 45 44 41 41 33 34 34 32 34 34 35 35 32 33 32 30 30 27
34 35 34 33 35 35 37 38 38 39 41 42 42 43 44 44 39 38 37 42 44 39 10 21 29 41 41 40 40 43 42 42 39 39 35 29 33 33 33 34 35 33 32 32 31 30 29
34 34 34 35 34 35 36 37 37 39 40 41 42 42 43 42 44 41 42 40 38 24 12 18 32 41 42 41 38 41 40 41 40 38 38 36 33 31 31 33 35 34 33 31 31 31 28
34 34 34 34 34 34 35 36 37 38 40 40 42 43 43 43 38 44 44 36 23 16 18 23 30 37 36 37 40 39 39 36 37 35 36 37 36 34 34 32 34 34 31 27 26 27 22
36 35 35 34 34 35 35 35 36 38 39 39 42 43 43 43 44 44 40 30 15 16 17 20 28 32 31 34 36 38 37 36 37 37 34 33 32 37 35 33 32 33 31 26 21 20 20
37 37 37 36 36 36 36 36 36 37 39 40 41 41 42 42 44 44 32 19 15 13 17 14 15 17 25 31 31 34 36 36 36 37 34 32 32 35 37 35 32 32 31 33 27 27 25
39 37 37 37 37 36 36 36 36 37 39 40 39 38 38 42 45 40 28 22 22 18 14 13 9 14 18 23 30 30 31 34 35 37 37 34 31 33 37 37 35 31 33 31 31 26 23
39 39 38 37 36 36 37 36 37 37 39 40 38 33 38 43 43 34 23 22 21 22 17 12 11 12 11 10 28 29 34 31 34 33 37 36 33 30 34 35 34 33 30 32 35 32 24
36 37 38 38 37 36 36 36 37 37 39 39 36 28 41 43 30 30 25 23 23 20 19 16 19 14 10 10 10 17 30 35 36 36 34 37 35 31 31 32 35 34 31 33 31 29 31
36 36 37 37 38 37 36 35 35 37 38 37 32 32 42 40 25 25 27 24 25 23 19 18 17 19 16 14 12 12 13 18 21 25 34 36 35 30 31 34 35 33 32 31 32 29 28
33 34 34 35 35 37 37 35 34 36 37 38 31 26 33 36 34 27 24 24 24 25 24 19 19 19 18 17 20 17 13 19 31 33 35 36 33 33 27 28 32 34 33 32 31 29 27
33 34 34 36 34 36 35 34 34 36 37 37 32 29 30 25 27 29 27 24 22 23 25 24 21 18 17 18 17 18 21 22 21 22 29 31 27 31 33 30 28 30 32 33 30 30 29
32 32 36 36 33 32 34 33 35 36 36 35 28 29 32 29 27 26 27 25 23 24 24 23 21 20 18 16 16 15 17 17 16 19 24 32 24 28 24 30 35 31 32 33 34 31 29
34 33 37 36 35 33 31 32 34 35 36 33 33 35 32 29 27 26 24 24 23 25 25 24 23 21 19 17 17 17 18 19 17 21 25 26 25 23 19 25 24 23 32 34 34 36 32
35 34 36 36 36 32 32 34 34 34 36 36 34 34 29 23 26 24 25 26 26 25 24 24 23 23 22 21 20 19 19 19 19 19 25 23 23 23 18 21 14 24 31 27 33 34 35
35 35 36 35 33 32 34 34 34 35 36 36 37 34 29 23 26 25 25 25 26 26 26 29 25 25 26 24 22 22 20 18 18 20 21 22 21 18 16 12 17 15 17 21 30 34 34
36 36 36 36 35 35 35 34 35 34 36 36 37 37 34 26 24 27 25 26 26 27 28 31 32 28 27 27 23 16 13 14 12 17 19 19 24 19 15 11 9 11 16 23 19 20 27
34 35 35 34 35 35 35 35 35 34 35 36 38 39 35 28 30 31 28 28 31 30 29 28 30 29 31 25 20 18 16 16 11 10 14 18 18 17 17 15 14 12 14 15 20 22 34
32 34 34 34 35 35 36 34 34 34 35 37 37 40 36 30 31 34 35 32 32 32 28 29 28 28 27 22 21 21 20 18 16 16 13 12 15 18 18 16 12 20 29 30 30 37 38
32 32 32 32 33 35 33 33 33 34 36 40 35 40 40 34 32 37 37 38 36 35 32 31 26 27 27 24 24 20 19 18 17 13 19 16 16 15 21 20 25 37 37 38 39 38 38

GFSGBSN_sfc_30mbdewp_231.txt.gz
Dewpoint
44 44 45 46 47 47 47 47 46 45 45 46 46 46 47 47 49 49 51 50 48 47 48 50 54 57 53 45 40 46 55 48 44 43 37 36 33 33 31 31 30 30 30 31 32 31 30
42 41 43 44 45 45 47 47 47 47 46 46 46 47 47 47 47 48 50 51 50 48 48 49 51 55 51 42 43 47 46 45 42 41 38 35 34 34 32 31 30 31 29 29 30 29 29
39 40 41 42 44 44 45 47 47 47 46 46 46 46 46 46 46 47 47 49 50 50 48 48 50 51 50 45 43 48 47 46 47 45 40 42 38 36 35 33 33 32 30 31 30 30 29
38 38 38 40 41 43 43 44 46 47 47 46 44 45 45 46 46 46 46 47 48 50 50 48 49 49 45 51 51 48 47 44 45 46 44 45 45 39 36 36 34 31 30 27 28 30 29
37 37 37 38 41 41 41 42 44 45 45 47 47 46 45 46 46 46 45 46 47 47 47 50 46 46 44 51 47 47 45 40 41 44 45 43 43 41 37 34 31 31 27 28 27 28 27
39 37 37 37 39 40 41 41 42 43 43 44 46 47 46 45 45 45 45 45 46 46 46 48 47 37 41 45 46 47 46 43 38 39 41 42 41 37 36 34 27 27 29 28 25 27 28
35 36 36 36 38 36 39 41 41 42 43 43 44 45 46 46 44 45 43 43 37 40 39 34 37 39 42 48 46 46 45 44 41 37 33 42 37 34 33 33 32 28 26 26 28 28 27
35 33 35 37 38 38 38 39 40 41 42 42 44 44 45 46 46 44 43 38 37 36 33 38 40 42 44 45 46 42 43 40 40 35 33 36 34 34 36 35 34 32 30 28 29 29 29
35 35 33 35 37 38 37 37 38 39 41 42 43 43 44 44 46 43 40 38 41 41 33 32 35 37 39 40 39 44 42 39 37 35 32 27 25 32 34 35 34 32 31 30 29 29 30
34 35 35 34 34 34 34 36 37 38 39 41 42 42 44 45 41 42 39 41 42 42 26 24 30 30 36 39 38 44 45 40 37 35 34 30 27 28 31 31 34 29 33 32 30 29 24
35 34 34 34 34 35 35 35 35 35 37 40 41 42 43 44 41 38 38 42 43 39 12 18 26 33 31 37 39 42 48 42 38 34 34 34 34 29 30 30 34 29 31 32 32 31 30
37 35 34 34 34 34 34 34 35 36 37 39 40 41 43 41 43 41 42 42 39 24 10 18 27 34 33 35 34 37 42 46 46 40 35 33 33 32 30 32 35 35 33 32 32 30 27
40 37 36 36 35 34 35 36 35 35 36 38 40 41 41 42 36 44 43 38 22 15 15 14 26 32 33 32 34 32 40 40 37 34 34 36 33 31 32 31 32 35 33 31 29 28 25
40 41 38 38 38 37 36 36 37 37 36 38 40 41 41 42 42 43 37 29 17 16 14 20 20 28 31 33 34 33 34 37 40 38 35 33 31 37 36 33 31 32 31 29 23 22 21
37 40 40 38 38 37 37 37 37 37 38 38 39 39 40 42 44 43 32 20 15 16 18 14 15 17 22 29 34 34 34 36 37 39 34 34 34 37 36 34 32 32 32 36 31 30 28
35 38 38 40 39 38 37 36 37 37 38 38 38 35 34 39 44 40 28 22 21 17 14 13 9 15 15 20 25 33 32 36 36 39 39 33 30 33 37 36 34 32 36 33 33 26 24
31 35 37 38 39 39 38 37 37 36 37 38 37 31 34 43 43 34 22 21 22 22 20 15 12 10 13 10 9 17 31 32 35 36 39 36 34 33 35 36 35 34 32 35 35 32 24
34 33 34 37 37 38 39 38 37 35 36 38 33 26 38 44 30 30 24 23 24 21 21 20 18 15 13 11 9 10 14 23 35 33 29 38 36 31 33 35 37 35 34 36 31 30 31
33 34 35 33 35 37 36 38 38 34 36 36 30 30 38 40 24 25 27 28 24 22 21 19 18 18 16 13 11 12 11 12 13 26 29 32 34 28 28 32 35 34 34 33 34 30 28
38 35 33 33 34 36 35 36 36 34 35 36 30 23 31 35 32 27 25 26 26 26 23 24 21 20 18 18 18 15 15 14 20 19 31 34 30 28 25 27 30 31 34 33 32 31 28
34 35 34 33 33 37 34 32 34 34 35 35 31 24 29 23 25 28 27 24 23 23 25 25 24 23 20 19 19 17 18 18 18 20 30 31 24 27 26 27 26 25 28 33 33 32 30
36 35 37 34 35 38 35 35 32 32 36 33 26 25 29 27 29 26 26 26 26 27 28 25 24 22 22 20 19 15 18 18 17 19 21 29 19 19 20 20 16 23 23 27 27 34 34
35 35 37 35 36 37 37 35 32 34 35 29 28 30 28 23 26 25 24 23 24 23 26 26 24 23 23 22 22 21 20 20 20 18 19 19 17 18 15 14 21 18 21 21 30 33 37
34 37 37 35 37 36 35 33 32 34 34 34 33 31 26 19 22 22 20 23 23 25 24 24 24 25 25 26 23 23 22 20 20 20 21 19 20 20 16 15 9 11 17 27 30 30 32
33 35 36 36 37 37 35 36 36 35 34 35 35 32 28 21 23 22 21 23 24 25 25 25 27 28 27 26 26 22 21 21 19 20 21 22 20 18 15 12 11 12 11 13 18 23 24
33 31 34 34 36 36 34 36 36 36 36 36 34 34 32 24 20 25 23 22 22 22 24 25 28 28 28 29 24 16 13 14 13 17 20 19 21 18 16 12 8 7 8 13 11 9 14
35 33 32 33 35 34 34 35 36 36 35 35 34 35 33 25 27 29 26 24 26 26 26 29 30 31 33 25 20 18 15 14 11 10 14 18 19 16 16 14 14 13 13 12 12 11 16
35 33 32 32 33 32 32 34 36 34 32 32 34 36 34 29 29 31 31 30 31 30 26 31 29 29 28 23 22 21 19 18 14 12 14 16 16 16 18 15 12 14 14 12 12 14 16
35 33 33 32 32 32 31 33 33 31 32 34 33 36 38 33 31 35 34 33 32 36 33 32 30 29 28 25 24 22 20 19 16 12 16 13 16 16 16 15 17 17 16 20 16 17 34